,,,PA_Meas_PMT16A,,PR_Meas_QMR101_102,,RH_Meas_QMH101,,SR_Meas_QMS101,,TA_Meas_QMH101,,GenWind,,GenWind,
date,time,status,PA,status,PR,status,RH,status,SR,status,TA,status,DirAvg,status,SpdAvg,
2008-05-27, 00:00:04,VALID,1011.25,VALID,0,VALID,96.542,VALID,0,VALID,22.7411,VALID,352,VALID,0.291797,
2008-05-27, 00:01:04,VALID,1011.25,VALID,0,VALID,96.5268,VALID,0,VALID,22.78,VALID,352,VALID,0.205078,
2008-05-27, 00:02:04,VALID,1011.22,VALID,0,VALID,96.5497,VALID,0,VALID,22.7606,VALID,352,VALID,0.0371094,
2008-05-27, 00:03:04,VALID,1011.21,VALID,0,VALID,96.542,VALID,0,VALID,22.7394,VALID,352,VALID,0.00351562,
2008-05-27, 00:04:04,VALID,1011.19,VALID,0,VALID,96.5268,VALID,0,VALID,22.7606,VALID,352,VALID,0.135156,
2008-05-27, 00:05:04,VALID,1011.19,VALID,0,VALID,96.542,VALID,0,VALID,22.7394,VALID,352,VALID,0.275391,
2008-05-27, 00:06:04,VALID,1011.17,VALID,0,VALID,96.5268,VALID,0,VALID,22.7411,VALID,352,VALID,0.399219,
2008-05-27, 00:07:04,VALID,1011.14,VALID,0,VALID,96.5344,VALID,0,VALID,22.7199,VALID,352,VALID,0.329688,
2008-05-27, 00:08:04,VALID,1011.14,VALID,0,VALID,96.5344,VALID,0,VALID,22.7606,VALID,352,VALID,0.405078,
2008-05-27, 00:09:04,VALID,1011.12,VALID,0,VALID,96.5268,VALID,0,VALID,22.7199,VALID,353,VALID,0.310937,
2008-05-27, 00:10:04,VALID,1011.12,VALID,0,VALID,96.5344,VALID,0,VALID,22.7199,VALID,7,VALID,0.245703,
2008-05-27, 00:11:04,VALID,1011.11,VALID,0,VALID,96.5344,VALID,0,VALID,22.7199,VALID,7,VALID,0.203906,
2008-05-27, 00:12:04,VALID,1011.11,VALID,0,VALID,96.5115,VALID,0,VALID,22.7411,VALID,8,VALID,0.246875,
2008-05-27, 00:13:04,VALID,1011.1,VALID,0,VALID,96.5344,VALID,0,VALID,22.7199,VALID,8,VALID,0.232422,
2008-05-27, 00:14:04,VALID,1011.08,VALID,0,VALID,96.5344,VALID,0,VALID,22.7004,VALID,8,VALID,0.128516,
2008-05-27, 00:15:04,VALID,1011.09,VALID,0,VALID,96.5497,VALID,0,VALID,22.7199,VALID,8,VALID,0.230859,
2008-05-27, 00:16:04,VALID,1011.1,VALID,0,VALID,96.5344,VALID,0,VALID,22.7216,VALID,8,VALID,0.0996094,
2008-05-27, 00:17:04,VALID,1011.07,VALID,0,VALID,96.5268,VALID,0,VALID,22.7004,VALID,9,VALID,0.04375,
2008-05-27, 00:18:04,VALID,1011.09,VALID,0,VALID,96.5192,VALID,0,VALID,22.7004,VALID,16,VALID,0.0832031,
2008-05-27, 00:19:04,VALID,1011.1,VALID,0,VALID,96.542,VALID,0,VALID,22.7199,VALID,16,VALID,0,
2008-05-27, 00:20:04,VALID,1011.09,VALID,0,VALID,96.5573,VALID,0,VALID,22.7199,VALID,267,VALID,0.245312,
2008-05-27, 00:21:04,VALID,1011.08,VALID,0,VALID,96.5344,VALID,0,VALID,22.7199,VALID,15,VALID,0.284766,
2008-05-27, 00:22:04,VALID,1011.08,VALID,0,VALID,96.542,VALID,0,VALID,22.7199,VALID,15,VALID,0.133203,
2008-05-27, 00:23:04,VALID,1011.1,VALID,0,VALID,96.542,VALID,0,VALID,22.7004,VALID,15,VALID,0.216016,
2008-05-27, 00:24:04,VALID,1011.06,VALID,0,VALID,96.5344,VALID,0,VALID,22.7004,VALID,76,VALID,0.432813,
2008-05-27, 00:25:04,VALID,1011.06,VALID,0,VALID,96.5497,VALID,0,VALID,22.6809,VALID,29,VALID,0.376563,
2008-05-27, 00:26:04,VALID,1011.04,VALID,0,VALID,96.542,VALID,0,VALID,22.6809,VALID,86,VALID,0.239453,
2008-05-27, 00:27:04,VALID,1011.03,VALID,0,VALID,96.5649,VALID,0,VALID,22.7004,VALID,108,VALID,0.341016,
2008-05-27, 00:28:04,VALID,1011.04,VALID,0,VALID,96.542,VALID,0,VALID,22.6809,VALID,64,VALID,0.196484,
2008-05-27, 00:29:04,VALID,1011.04,VALID,0,VALID,96.542,VALID,0,VALID,22.7021,VALID,56,VALID,0.251953,
2008-05-27, 00:30:04,VALID,1011.01,VALID,0,VALID,96.5573,VALID,0,VALID,22.6809,VALID,56,VALID,0.104687,
2008-05-27, 00:31:04,VALID,1011.02,VALID,0,VALID,96.5649,VALID,0,VALID,22.6614,VALID,40,VALID,0.203906,
2008-05-27, 00:32:04,VALID,1011.01,VALID,0,VALID,96.5649,VALID,0,VALID,22.6826,VALID,44,VALID,0.282813,
2008-05-27, 00:33:04,VALID,1011,VALID,0,VALID,96.542,VALID,0,VALID,22.6614,VALID,360,VALID,0.662891,
2008-05-27, 00:34:04,VALID,1011.01,VALID,0,VALID,96.5268,VALID,0,VALID,22.7021,VALID,14,VALID,0.276172,
2008-05-27, 00:35:04,VALID,1010.99,VALID,0,VALID,96.5192,VALID,0,VALID,22.6614,VALID,35,VALID,0.78125,
2008-05-27, 00:36:04,VALID,1011,VALID,0,VALID,96.5573,VALID,0,VALID,22.6614,VALID,327,VALID,0.126172,
2008-05-27, 00:37:04,VALID,1010.96,VALID,0,VALID,96.5497,VALID,0,VALID,22.6826,VALID,358,VALID,0.473437,
2008-05-27, 00:38:04,VALID,1010.98,VALID,0,VALID,96.5649,VALID,0,VALID,22.6614,VALID,33,VALID,0.261328,
2008-05-27, 00:39:04,VALID,1010.94,VALID,0,VALID,96.5344,VALID,0,VALID,22.6614,VALID,7,VALID,0.430859,
2008-05-27, 00:40:04,VALID,1010.93,VALID,0,VALID,96.5573,VALID,0,VALID,22.6809,VALID,359,VALID,0.134375,
2008-05-27, 00:41:04,VALID,1010.93,VALID,0,VALID,96.542,VALID,0,VALID,22.7021,VALID,316,VALID,0.326953,
2008-05-27, 00:42:04,VALID,1010.94,VALID,0,VALID,96.5649,VALID,0,VALID,22.7216,VALID,316,VALID,0.341406,
2008-05-27, 00:43:04,VALID,1010.91,VALID,0,VALID,96.5725,VALID,0,VALID,22.7021,VALID,313,VALID,0.146875,
2008-05-27, 00:44:04,VALID,1010.91,VALID,0,VALID,96.542,VALID,0,VALID,22.6809,VALID,313,VALID,0.0691406,
2008-05-27, 00:45:04,VALID,1010.89,VALID,0,VALID,96.5573,VALID,0,VALID,22.7004,VALID,322,VALID,0.380469,
2008-05-27, 00:46:04,VALID,1010.93,VALID,0,VALID,96.5573,VALID,0,VALID,22.6809,VALID,327,VALID,0.330469,
2008-05-27, 00:47:04,VALID,1010.9,VALID,0,VALID,96.5497,VALID,0,VALID,22.7004,VALID,327,VALID,0.138281,
2008-05-27, 00:48:04,VALID,1010.91,VALID,0,VALID,96.5573,VALID,0,VALID,22.6809,VALID,23,VALID,0.460547,
2008-05-27, 00:49:04,VALID,1010.95,VALID,0,VALID,96.5573,VALID,0,VALID,22.6809,VALID,23,VALID,0.213672,
2008-05-27, 00:50:04,VALID,1010.97,VALID,0,VALID,96.5497,VALID,0,VALID,22.6809,VALID,23,VALID,0.190234,
2008-05-27, 00:51:04,VALID,1010.96,VALID,0,VALID,96.5573,VALID,0,VALID,22.7216,VALID,23,VALID,0.207031,
2008-05-27, 00:52:04,VALID,1010.97,VALID,0,VALID,96.5497,VALID,0,VALID,22.7004,VALID,23,VALID,0.287891,
2008-05-27, 00:53:04,VALID,1010.97,VALID,0,VALID,96.5573,VALID,0,VALID,22.7021,VALID,23,VALID,0.352344,
2008-05-27, 00:54:04,VALID,1010.96,VALID,0,VALID,96.5268,VALID,0,VALID,22.7021,VALID,21,VALID,0.0566406,
2008-05-27, 00:55:04,VALID,1010.97,VALID,0,VALID,96.5802,VALID,0,VALID,22.6809,VALID,21,VALID,0,
2008-05-27, 00:56:04,VALID,1010.98,VALID,0,VALID,96.5573,VALID,0,VALID,22.6809,VALID,18,VALID,0.148047,
2008-05-27, 00:57:04,VALID,1010.96,VALID,0,VALID,96.5725,VALID,0,VALID,22.7004,VALID,18,VALID,0.0308594,
2008-05-27, 00:58:04,VALID,1010.91,VALID,0,VALID,96.5497,VALID,0,VALID,22.7021,VALID,18,VALID,0,
2008-05-27, 00:59:04,VALID,1010.93,VALID,0,VALID,96.5497,VALID,0,VALID,22.7411,VALID,18,VALID,0.00351562,
2008-05-27, 01:00:04,VALID,1010.92,VALID,0,VALID,96.5573,VALID,0,VALID,22.7004,VALID,18,VALID,0.119531,
2008-05-27, 01:01:04,VALID,1010.87,VALID,0,VALID,96.5573,VALID,0,VALID,22.7004,VALID,248,VALID,0.353516,
2008-05-27, 01:02:04,VALID,1010.86,VALID,0,VALID,96.5573,VALID,0,VALID,22.7004,VALID,268,VALID,0.280469,
2008-05-27, 01:03:04,VALID,1010.84,VALID,0,VALID,96.5497,VALID,0,VALID,22.6809,VALID,268,VALID,0.132031,
2008-05-27, 01:04:04,VALID,1010.82,VALID,0,VALID,96.5497,VALID,0.105969,VALID,22.6614,VALID,268,VALID,0,
2008-05-27, 01:05:04,VALID,1010.78,VALID,0,VALID,96.5497,VALID,0,VALID,22.642,VALID,339,VALID,0.761719,
2008-05-27, 01:06:04,VALID,1010.8,VALID,0,VALID,96.542,VALID,0,VALID,22.6225,VALID,353,VALID,0.282813,
2008-05-27, 01:07:04,VALID,1010.75,VALID,0,VALID,96.5497,VALID,0.105969,VALID,22.6225,VALID,2,VALID,0.0277344,
2008-05-27, 01:08:04,VALID,1010.76,VALID,0,VALID,96.5497,VALID,0,VALID,22.6225,VALID,2,VALID,0.168359,
2008-05-27, 01:09:04,VALID,1010.74,VALID,0,VALID,96.5802,VALID,0,VALID,22.6225,VALID,2,VALID,0.00351562,
2008-05-27, 01:10:04,VALID,1010.74,VALID,0,VALID,96.5649,VALID,0,VALID,22.6225,VALID,2,VALID,0,
2008-05-27, 01:11:04,VALID,1010.73,VALID,0,VALID,96.5649,VALID,0,VALID,22.6437,VALID,2,VALID,0,
2008-05-27, 01:12:04,VALID,1010.72,VALID,0,VALID,96.5573,VALID,0,VALID,22.6225,VALID,2,VALID,0.410937,
2008-05-27, 01:13:04,VALID,1010.7,VALID,0,VALID,96.5649,VALID,0,VALID,22.6225,VALID,15,VALID,0.397656,
2008-05-27, 01:14:04,VALID,1010.67,VALID,0,VALID,96.5497,VALID,0,VALID,22.564,VALID,16,VALID,0.206641,
2008-05-27, 01:15:04,VALID,1010.68,VALID,0,VALID,96.5725,VALID,0,VALID,22.5852,VALID,16,VALID,0.135547,
2008-05-27, 01:16:04,VALID,1010.7,VALID,0,VALID,96.5649,VALID,0,VALID,22.564,VALID,16,VALID,0.0761719,
2008-05-27, 01:17:04,VALID,1010.7,VALID,0,VALID,96.5802,VALID,0,VALID,22.5835,VALID,16,VALID,0,
2008-05-27, 01:18:04,VALID,1010.72,VALID,0,VALID,96.5725,VALID,0,VALID,22.5852,VALID,16,VALID,0.180859,
2008-05-27, 01:19:04,VALID,1010.71,VALID,0,VALID,96.5802,VALID,0,VALID,22.5835,VALID,16,VALID,0.275,
2008-05-27, 01:20:04,VALID,1010.72,VALID,0,VALID,96.5802,VALID,0,VALID,22.564,VALID,86,VALID,0.461719,
2008-05-27, 01:21:04,VALID,1010.69,VALID,0,VALID,96.5802,VALID,0,VALID,22.5852,VALID,105,VALID,0.303125,
2008-05-27, 01:22:04,VALID,1010.71,VALID,0,VALID,96.5878,VALID,0,VALID,22.564,VALID,116,VALID,0.423828,
2008-05-27, 01:23:04,VALID,1010.68,VALID,0,VALID,96.5802,VALID,0,VALID,22.5835,VALID,116,VALID,0.353906,
2008-05-27, 01:24:04,VALID,1010.71,VALID,0,VALID,96.5878,VALID,0,VALID,22.603,VALID,118,VALID,0.481641,
2008-05-27, 01:25:04,VALID,1010.7,VALID,0,VALID,96.5954,VALID,0,VALID,22.6225,VALID,152,VALID,0.527734,
2008-05-27, 01:26:04,VALID,1010.73,VALID,0,VALID,96.5725,VALID,0,VALID,22.603,VALID,163,VALID,0.586719,
2008-05-27, 01:27:04,VALID,1010.72,VALID,0,VALID,96.5802,VALID,0,VALID,22.6225,VALID,163,VALID,0.603906,
2008-05-27, 01:28:04,VALID,1010.71,VALID,0,VALID,96.5649,VALID,0.105969,VALID,22.603,VALID,163,VALID,0.524219,
2008-05-27, 01:29:04,VALID,1010.72,VALID,0,VALID,96.5649,VALID,0,VALID,22.5835,VALID,163,VALID,0.407813,
2008-05-27, 01:30:04,VALID,1010.7,VALID,0,VALID,96.5649,VALID,0,VALID,22.603,VALID,162,VALID,0.364844,
2008-05-27, 01:31:04,VALID,1010.71,VALID,0,VALID,96.5954,VALID,0,VALID,22.603,VALID,163,VALID,0.309766,
2008-05-27, 01:32:04,VALID,1010.7,VALID,0,VALID,96.5878,VALID,0,VALID,22.6225,VALID,163,VALID,0.160938,
2008-05-27, 01:33:04,VALID,1010.69,VALID,0,VALID,96.5878,VALID,0,VALID,22.642,VALID,162,VALID,0.280469,
2008-05-27, 01:34:04,VALID,1010.71,VALID,0,VALID,96.5725,VALID,0,VALID,22.6614,VALID,162,VALID,0.339844,
2008-05-27, 01:35:04,VALID,1010.71,VALID,0,VALID,96.5649,VALID,0,VALID,22.642,VALID,162,VALID,0.347656,
2008-05-27, 01:36:04,VALID,1010.74,VALID,0,VALID,96.5725,VALID,0,VALID,22.6614,VALID,162,VALID,0.335156,
2008-05-27, 01:37:04,VALID,1010.71,VALID,0,VALID,96.5725,VALID,0.105969,VALID,22.6614,VALID,162,VALID,0.251953,
2008-05-27, 01:38:04,VALID,1010.68,VALID,0,VALID,96.5878,VALID,0,VALID,22.6614,VALID,162,VALID,0.248047,
2008-05-27, 01:39:04,VALID,1010.66,VALID,0,VALID,96.5954,VALID,0,VALID,22.7004,VALID,124,VALID,0.478516,
2008-05-27, 01:40:04,VALID,1010.65,VALID,0,VALID,96.5725,VALID,0.105969,VALID,22.6809,VALID,117,VALID,0.591016,
2008-05-27, 01:41:04,VALID,1010.65,VALID,0,VALID,96.5878,VALID,0,VALID,22.7004,VALID,117,VALID,0.503516,
2008-05-27, 01:42:04,VALID,1010.65,VALID,0,VALID,96.5649,VALID,0,VALID,22.6809,VALID,119,VALID,0.658594,
2008-05-27, 01:43:04,VALID,1010.65,VALID,0,VALID,96.5649,VALID,0,VALID,22.6809,VALID,128,VALID,0.625781,
2008-05-27, 01:44:04,VALID,1010.66,VALID,0,VALID,96.5649,VALID,0,VALID,22.6614,VALID,136,VALID,0.741406,
2008-05-27, 01:45:04,VALID,1010.65,VALID,0,VALID,96.5649,VALID,0,VALID,22.6809,VALID,127,VALID,0.735547,
2008-05-27, 01:46:04,VALID,1010.61,VALID,0,VALID,96.5802,VALID,0,VALID,22.6826,VALID,123,VALID,0.664063,
2008-05-27, 01:47:04,VALID,1010.61,VALID,0,VALID,96.5573,VALID,0,VALID,22.642,VALID,127,VALID,0.722656,
2008-05-27, 01:48:04,VALID,1010.61,VALID,0,VALID,96.5497,VALID,0,VALID,22.6809,VALID,126,VALID,0.458203,
2008-05-27, 01:49:04,VALID,1010.62,VALID,0,VALID,96.5725,VALID,0,VALID,22.6614,VALID,138,VALID,0.654688,
2008-05-27, 01:50:04,VALID,1010.6,VALID,0,VALID,96.5725,VALID,0,VALID,22.6225,VALID,138,VALID,0.921875,
2008-05-27, 01:51:04,VALID,1010.61,VALID,0,VALID,96.5802,VALID,0,VALID,22.6225,VALID,148,VALID,0.775391,
2008-05-27, 01:52:04,VALID,1010.6,VALID,0,VALID,96.5725,VALID,0,VALID,22.6242,VALID,147,VALID,0.711328,
2008-05-27, 01:53:04,VALID,1010.58,VALID,0,VALID,96.5649,VALID,0,VALID,22.6614,VALID,137,VALID,0.580469,
2008-05-27, 01:54:04,VALID,1010.56,VALID,0,VALID,96.5725,VALID,0,VALID,22.6632,VALID,114,VALID,0.940234,
2008-05-27, 01:55:04,VALID,1010.56,VALID,0,VALID,96.5649,VALID,0,VALID,22.642,VALID,110,VALID,0.683203,
2008-05-27, 01:56:04,VALID,1010.54,VALID,0,VALID,96.5878,VALID,0,VALID,22.6614,VALID,118,VALID,0.792969,
2008-05-27, 01:57:04,VALID,1010.51,VALID,0,VALID,96.5802,VALID,0,VALID,22.7021,VALID,109,VALID,1.20234,
2008-05-27, 01:58:04,VALID,1010.49,VALID,0,VALID,96.5954,VALID,0,VALID,22.7004,VALID,112,VALID,0.858203,
2008-05-27, 01:59:04,VALID,1010.47,VALID,0,VALID,96.5802,VALID,0,VALID,22.7411,VALID,104,VALID,1.16875,
2008-05-27, 02:00:04,VALID,1010.46,VALID,0,VALID,96.5878,VALID,0,VALID,22.7394,VALID,107,VALID,1.07344,
2008-05-27, 02:01:04,VALID,1010.43,VALID,0,VALID,96.5725,VALID,0,VALID,22.7606,VALID,110,VALID,0.935156,
2008-05-27, 02:02:04,VALID,1010.43,VALID,0,VALID,96.5649,VALID,0,VALID,22.7606,VALID,98,VALID,1.275,
2008-05-27, 02:03:04,VALID,1010.41,VALID,0,VALID,96.5649,VALID,0,VALID,22.7004,VALID,114,VALID,1.00039,
2008-05-27, 02:04:04,VALID,1010.39,VALID,0,VALID,96.5725,VALID,0,VALID,22.7004,VALID,73,VALID,0.908203,
2008-05-27, 02:05:04,VALID,1010.39,VALID,0,VALID,96.5649,VALID,0,VALID,22.7021,VALID,56,VALID,0.501172,
2008-05-27, 02:06:04,VALID,1010.37,VALID,0.5,VALID,96.5725,VALID,0,VALID,22.7216,VALID,41,VALID,0.413672,
2008-05-27, 02:07:04,VALID,1010.37,VALID,0,VALID,96.5649,VALID,0,VALID,22.7199,VALID,38,VALID,0.611328,
2008-05-27, 02:08:04,VALID,1010.34,VALID,0,VALID,96.5878,VALID,0,VALID,22.7004,VALID,38,VALID,0.375781,
2008-05-27, 02:09:04,VALID,1010.36,VALID,0,VALID,96.5649,VALID,0,VALID,22.6614,VALID,56,VALID,0.711328,
2008-05-27, 02:10:04,VALID,1010.37,VALID,0,VALID,96.5649,VALID,0,VALID,22.6225,VALID,27,VALID,0.876562,
2008-05-27, 02:11:04,VALID,1010.36,VALID,0,VALID,96.5649,VALID,0,VALID,22.6437,VALID,35,VALID,0.354688,
2008-05-27, 02:12:04,VALID,1010.34,VALID,0,VALID,96.5725,VALID,0,VALID,22.603,VALID,35,VALID,0.471875,
2008-05-27, 02:13:04,VALID,1010.31,VALID,0,VALID,96.5802,VALID,0,VALID,22.603,VALID,35,VALID,0.216797,
2008-05-27, 02:14:04,VALID,1010.27,VALID,0,VALID,96.5878,VALID,0,VALID,22.6437,VALID,47,VALID,0.440625,
2008-05-27, 02:15:04,VALID,1010.24,VALID,0,VALID,96.5725,VALID,0,VALID,22.6047,VALID,71,VALID,0.691016,
2008-05-27, 02:16:04,VALID,1010.27,VALID,0,VALID,96.5802,VALID,0,VALID,22.6047,VALID,59,VALID,0.430078,
2008-05-27, 02:17:04,VALID,1010.22,VALID,0,VALID,96.5878,VALID,0,VALID,22.5835,VALID,59,VALID,0.413281,
2008-05-27, 02:18:04,VALID,1010.2,VALID,0,VALID,96.5802,VALID,0,VALID,22.5852,VALID,82,VALID,0.444531,
2008-05-27, 02:19:04,VALID,1010.19,VALID,0,VALID,96.5802,VALID,0,VALID,22.603,VALID,85,VALID,0.391406,
2008-05-27, 02:20:04,VALID,1010.19,VALID,0,VALID,96.5954,VALID,0,VALID,22.5852,VALID,95,VALID,0.623438,
2008-05-27, 02:21:04,VALID,1010.18,VALID,0,VALID,96.5802,VALID,0,VALID,22.5835,VALID,103,VALID,0.647656,
2008-05-27, 02:22:04,VALID,1010.17,VALID,0,VALID,96.5954,VALID,0,VALID,22.564,VALID,93,VALID,0.587891,
2008-05-27, 02:23:04,VALID,1010.18,VALID,0,VALID,96.5878,VALID,0,VALID,22.6242,VALID,94,VALID,0.36875,
2008-05-27, 02:24:04,VALID,1010.16,VALID,0,VALID,96.5878,VALID,0,VALID,22.603,VALID,111,VALID,0.426172,
2008-05-27, 02:25:04,VALID,1010.17,VALID,0,VALID,96.5802,VALID,0,VALID,22.6242,VALID,105,VALID,0.209766,
2008-05-27, 02:26:04,VALID,1010.16,VALID,0,VALID,96.5878,VALID,0,VALID,22.603,VALID,105,VALID,0.601953,
2008-05-27, 02:27:04,VALID,1010.18,VALID,0,VALID,96.5878,VALID,0,VALID,22.6242,VALID,104,VALID,0.780078,
2008-05-27, 02:28:04,VALID,1010.17,VALID,0,VALID,96.5802,VALID,0,VALID,22.6437,VALID,118,VALID,0.904688,
2008-05-27, 02:29:04,VALID,1010.16,VALID,0,VALID,96.5954,VALID,0,VALID,22.6242,VALID,74,VALID,0.954687,
2008-05-27, 02:30:04,VALID,1010.15,VALID,0,VALID,96.5954,VALID,0,VALID,22.603,VALID,85,VALID,0.996875,
2008-05-27, 02:31:04,VALID,1010.17,VALID,0,VALID,96.5878,VALID,0,VALID,22.603,VALID,81,VALID,0.921484,
2008-05-27, 02:32:04,VALID,1010.14,VALID,0,VALID,96.5802,VALID,0,VALID,22.6047,VALID,78,VALID,1.30156,
2008-05-27, 02:33:04,VALID,1010.13,VALID,0,VALID,96.5954,VALID,0,VALID,22.6047,VALID,99,VALID,1.17148,
2008-05-27, 02:34:04,VALID,1010.12,VALID,0,VALID,96.5878,VALID,0,VALID,22.603,VALID,80,VALID,0.848047,
2008-05-27, 02:35:04,VALID,1010.07,VALID,0,VALID,96.5802,VALID,0,VALID,22.5852,VALID,82,VALID,0.998438,
2008-05-27, 02:36:04,VALID,1010.09,VALID,0,VALID,96.6107,VALID,0,VALID,22.5835,VALID,87,VALID,0.761719,
2008-05-27, 02:37:04,VALID,1010.07,VALID,0,VALID,96.603,VALID,0,VALID,22.603,VALID,84,VALID,1.19609,
2008-05-27, 02:38:04,VALID,1010.07,VALID,0,VALID,96.603,VALID,0,VALID,22.5835,VALID,100,VALID,0.841797,
2008-05-27, 02:39:04,VALID,1010.07,VALID,0,VALID,96.6107,VALID,0,VALID,22.5658,VALID,83,VALID,1.37852,
2008-05-27, 02:40:04,VALID,1010.09,VALID,0,VALID,96.5802,VALID,0,VALID,22.5251,VALID,96,VALID,1.05508,
2008-05-27, 02:41:04,VALID,1010.1,VALID,0,VALID,96.5802,VALID,0,VALID,22.5268,VALID,94,VALID,0.860156,
2008-05-27, 02:42:04,VALID,1010.06,VALID,0,VALID,96.5878,VALID,0,VALID,22.5446,VALID,71,VALID,0.788281,
2008-05-27, 02:43:04,VALID,1010.04,VALID,0,VALID,96.5878,VALID,0,VALID,22.5268,VALID,63,VALID,0.727734,
2008-05-27, 02:44:04,VALID,1010.04,VALID,0,VALID,96.603,VALID,0,VALID,22.4861,VALID,87,VALID,0.785156,
2008-05-27, 02:45:04,VALID,1010.01,VALID,0,VALID,96.6183,VALID,0,VALID,22.4861,VALID,88,VALID,0.889844,
2008-05-27, 02:46:04,VALID,1010.02,VALID,0,VALID,96.5878,VALID,0,VALID,22.5073,VALID,71,VALID,0.629297,
2008-05-27, 02:47:04,VALID,1010.01,VALID,0,VALID,96.603,VALID,0,VALID,22.5073,VALID,103,VALID,0.743359,
2008-05-27, 02:48:04,VALID,1009.98,VALID,0,VALID,96.603,VALID,0,VALID,22.5056,VALID,68,VALID,0.657422,
2008-05-27, 02:49:04,VALID,1010.01,VALID,0,VALID,96.603,VALID,0,VALID,22.5073,VALID,68,VALID,0.327344,
2008-05-27, 02:50:04,VALID,1010,VALID,0,VALID,96.6107,VALID,0,VALID,22.5251,VALID,79,VALID,0.589453,
2008-05-27, 02:51:04,VALID,1009.99,VALID,0,VALID,96.6183,VALID,0,VALID,22.5268,VALID,92,VALID,0.678516,
2008-05-27, 02:52:04,VALID,1009.97,VALID,0,VALID,96.6183,VALID,0,VALID,22.4861,VALID,80,VALID,0.516797,
2008-05-27, 02:53:04,VALID,1009.97,VALID,0,VALID,96.5878,VALID,0,VALID,22.5056,VALID,98,VALID,0.584766,
2008-05-27, 02:54:04,VALID,1009.96,VALID,0,VALID,96.5954,VALID,0,VALID,22.5073,VALID,97,VALID,0.755469,
2008-05-27, 02:55:04,VALID,1009.97,VALID,0,VALID,96.603,VALID,0,VALID,22.4861,VALID,89,VALID,0.780078,
2008-05-27, 02:56:04,VALID,1009.95,VALID,0,VALID,96.5954,VALID,0,VALID,22.4878,VALID,93,VALID,0.70625,
2008-05-27, 02:57:04,VALID,1009.98,VALID,0,VALID,96.6183,VALID,0,VALID,22.5073,VALID,87,VALID,0.582812,
2008-05-27, 02:58:04,VALID,1009.99,VALID,0,VALID,96.6107,VALID,0,VALID,22.4861,VALID,93,VALID,0.516016,
2008-05-27, 02:59:04,VALID,1009.98,VALID,0,VALID,96.6183,VALID,0,VALID,22.5056,VALID,93,VALID,0.666406,
2008-05-27, 03:00:04,VALID,1009.97,VALID,0,VALID,96.6107,VALID,0,VALID,22.5268,VALID,87,VALID,0.592969,
2008-05-27, 03:01:04,VALID,1009.96,VALID,0,VALID,96.603,VALID,0,VALID,22.5268,VALID,91,VALID,0.978516,
2008-05-27, 03:02:04,VALID,1009.99,VALID,0,VALID,96.6183,VALID,0,VALID,22.5073,VALID,98,VALID,0.630078,
2008-05-27, 03:03:04,VALID,1009.99,VALID,0,VALID,96.5954,VALID,0,VALID,22.5463,VALID,112,VALID,0.432813,
2008-05-27, 03:04:04,VALID,1009.96,VALID,0,VALID,96.6107,VALID,0,VALID,22.5446,VALID,112,VALID,0.107422,
2008-05-27, 03:05:04,VALID,1009.99,VALID,0,VALID,96.5802,VALID,0,VALID,22.6047,VALID,112,VALID,0.5875,
2008-05-27, 03:06:04,VALID,1010.03,VALID,0,VALID,96.6107,VALID,0,VALID,22.5852,VALID,131,VALID,0.928516,
2008-05-27, 03:07:05,VALID,1010.03,VALID,0,VALID,96.5954,VALID,0,VALID,22.5056,VALID,116,VALID,1.08672,
2008-05-27, 03:08:05,VALID,1010.02,VALID,0,VALID,96.603,VALID,0,VALID,22.4861,VALID,115,VALID,0.723437,
2008-05-27, 03:09:05,VALID,1010.01,VALID,0,VALID,96.5878,VALID,0,VALID,22.5463,VALID,101,VALID,0.733203,
2008-05-27, 03:10:05,VALID,1010.03,VALID,0,VALID,96.6107,VALID,0,VALID,22.5852,VALID,102,VALID,0.751953,
2008-05-27, 03:11:05,VALID,1010.04,VALID,0,VALID,96.603,VALID,0,VALID,22.5251,VALID,110,VALID,0.546875,
2008-05-27, 03:12:05,VALID,1010.02,VALID,0,VALID,96.603,VALID,0,VALID,22.564,VALID,112,VALID,0.416406,
2008-05-27, 03:13:05,VALID,1010.04,VALID,0,VALID,96.6107,VALID,0.105969,VALID,22.5818,VALID,112,VALID,0.550781,
2008-05-27, 03:14:05,VALID,1010.04,VALID,0,VALID,96.603,VALID,0.105969,VALID,22.564,VALID,119,VALID,0.840234,
2008-05-27, 03:15:05,VALID,1010.01,VALID,0,VALID,96.5954,VALID,0,VALID,22.5835,VALID,116,VALID,0.478906,
2008-05-27, 03:16:05,VALID,1010.03,VALID,0,VALID,96.5954,VALID,0.105969,VALID,22.564,VALID,127,VALID,0.591016,
2008-05-27, 03:17:05,VALID,1010.02,VALID,0,VALID,96.603,VALID,0.105969,VALID,22.5429,VALID,133,VALID,0.815625,
2008-05-27, 03:18:05,VALID,1010.04,VALID,0,VALID,96.603,VALID,0.105969,VALID,22.5446,VALID,141,VALID,0.823438,
2008-05-27, 03:19:05,VALID,1010.01,VALID,0,VALID,96.5954,VALID,0.105969,VALID,22.564,VALID,121,VALID,0.515625,
2008-05-27, 03:20:05,VALID,1010.01,VALID,0,VALID,96.6107,VALID,0.105969,VALID,22.564,VALID,123,VALID,0.629687,
2008-05-27, 03:21:05,VALID,1009.99,VALID,0,VALID,96.5954,VALID,0.105969,VALID,22.5623,VALID,106,VALID,0.348437,
2008-05-27, 03:22:05,VALID,1009.97,VALID,0,VALID,96.603,VALID,0.105969,VALID,22.5623,VALID,112,VALID,0.627734,
2008-05-27, 03:23:05,VALID,1009.97,VALID,0,VALID,96.6107,VALID,0.105969,VALID,22.5835,VALID,111,VALID,0.382422,
2008-05-27, 03:24:05,VALID,1009.96,VALID,0,VALID,96.603,VALID,0.105969,VALID,22.5835,VALID,106,VALID,0.455469,
2008-05-27, 03:25:05,VALID,1009.95,VALID,0,VALID,96.603,VALID,0.105969,VALID,22.564,VALID,99,VALID,0.738281,
2008-05-27, 03:26:05,VALID,1009.93,VALID,0,VALID,96.603,VALID,0.105969,VALID,22.564,VALID,105,VALID,0.833984,
2008-05-27, 03:27:05,VALID,1009.93,VALID,0,VALID,96.6335,VALID,0.105969,VALID,22.5835,VALID,103,VALID,0.799609,
2008-05-27, 03:28:05,VALID,1009.95,VALID,0,VALID,96.603,VALID,0,VALID,22.5852,VALID,92,VALID,1.08047,
2008-05-27, 03:29:05,VALID,1009.93,VALID,0,VALID,96.5954,VALID,0,VALID,22.5658,VALID,86,VALID,1.01836,
2008-05-27, 03:30:05,VALID,1009.96,VALID,0,VALID,96.5878,VALID,0,VALID,22.5446,VALID,84,VALID,1.15078,
2008-05-27, 03:31:05,VALID,1009.94,VALID,0,VALID,96.603,VALID,0,VALID,22.564,VALID,83,VALID,1.04102,
2008-05-27, 03:32:05,VALID,1009.92,VALID,0,VALID,96.603,VALID,0,VALID,22.5251,VALID,84,VALID,1.49102,
2008-05-27, 03:33:05,VALID,1009.94,VALID,0,VALID,96.603,VALID,0,VALID,22.5268,VALID,86,VALID,0.867578,
2008-05-27, 03:34:05,VALID,1009.94,VALID,0,VALID,96.603,VALID,0,VALID,22.5463,VALID,95,VALID,0.863281,
2008-05-27, 03:35:05,VALID,1009.96,VALID,0,VALID,96.5878,VALID,0,VALID,22.5056,VALID,96,VALID,1.18555,
2008-05-27, 03:36:05,VALID,1009.96,VALID,0,VALID,96.6107,VALID,0,VALID,22.5056,VALID,105,VALID,1.11133,
2008-05-27, 03:37:05,VALID,1009.96,VALID,0,VALID,96.6183,VALID,0,VALID,22.5056,VALID,120,VALID,0.692578,
2008-05-27, 03:38:05,VALID,1009.96,VALID,0,VALID,96.603,VALID,0,VALID,22.5251,VALID,104,VALID,1.41094,
2008-05-27, 03:39:05,VALID,1009.97,VALID,0,VALID,96.603,VALID,0,VALID,22.5463,VALID,114,VALID,0.717188,
2008-05-27, 03:40:05,VALID,1009.99,VALID,0,VALID,96.603,VALID,0,VALID,22.5446,VALID,107,VALID,0.873828,
2008-05-27, 03:41:05,VALID,1009.99,VALID,0,VALID,96.5878,VALID,0,VALID,22.564,VALID,99,VALID,1.04492,
2008-05-27, 03:42:05,VALID,1010,VALID,0,VALID,96.603,VALID,0,VALID,22.5658,VALID,98,VALID,1.00625,
2008-05-27, 03:43:05,VALID,1010.01,VALID,0,VALID,96.6107,VALID,0,VALID,22.5446,VALID,124,VALID,1.08086,
2008-05-27, 03:44:05,VALID,1010,VALID,0,VALID,96.6107,VALID,0,VALID,22.5463,VALID,107,VALID,1.28281,
2008-05-27, 03:45:05,VALID,1010.02,VALID,0,VALID,96.6107,VALID,0,VALID,22.5463,VALID,116,VALID,1.20391,